Flag for Belgium Weather past 2 weeks in Leuven, Belgium

Now
61 °F

Sunny.


Feels Like: 61 °F
Forecast: 52 / 65 °F
Wind: 9 mph from Northwest

Location: Brussels National Airport

Current Time: Jul 29, 2015 at 10:07:08 PM

Latest Report: Jul 29, 2015 at 9:20 PM


Visibility: 10 mi

Pressure: 29.92 "Hg

Humidity: 52%

Dew point: 43 °F

Location of LeuvenLocation

Historic Weather in Leuven — Graph

°F

Leuven temperature yesterday

Maximum temperature yesterday: 64 °F (at 4:20 PM)
Minimum temperature yesterday: 55 °F (at 11:20 AM)
Average temperature yesterday: 59 °F

Past Weeks' High & Low Weather Summary

 TemperatureHumidityPressure
High84 °F (Jul 16, 5:20 PM)100% (Jul 25, 1:20 PM)30.12 "Hg (Jul 25, 1:20 PM)
Low50 °F (Jul 25, 11:50 PM)36% (Jul 18, 4:50 PM)29.50 "Hg (Jul 25, 3:50 AM)
Average65 °F71%29.90 "Hg
* Reported Jul 14 8:20 PM — Jul 29 8:50 PM, Leuven, Weather by CustomWeather, © 2015

Note: Actual official high and low records may vary slightly from our data, if they occured in-between our weather recording intervals... More about our weather records

Advertising

Leuven weather history for previous 24 hours

 ConditionsComfort  
Time TempWeatherWind HumidityBarometerVisibility
8:50 PM
Wed, Jul 29
61 °FPassing clouds.8 mph55%29.92 "HgN/A
8:20 PM63 °FSunny.12 mph49%29.92 "Hg10 mi
7:50 PM63 °FPassing clouds.10 mph49%29.89 "HgN/A
7:20 PM63 °FPassing clouds.12 mph49%29.89 "HgN/A
6:50 PM64 °FPassing clouds.12 mph43%29.89 "HgN/A
6:20 PM64 °FPassing clouds.14 mph43%29.89 "HgN/A
5:50 PM64 °FSunny.16 mph43%29.89 "Hg10 mi
5:20 PM66 °FPassing clouds.18 mph37%29.86 "HgN/A
4:50 PM64 °FSunny.18 mph40%29.86 "Hg10 mi
4:20 PM66 °FSunny.21 mph40%29.86 "Hg10 mi
3:50 PM64 °FScattered clouds.18 mph43%29.86 "HgN/A
3:20 PM66 °FScattered clouds.20 mph40%29.83 "HgN/A
2:50 PM64 °FScattered clouds.22 mph43%29.83 "HgN/A
2:20 PM66 °FScattered clouds.21 mph40%29.83 "HgN/A
1:50 PM63 °FScattered clouds.17 mph52%29.80 "HgN/A
1:20 PM63 °FScattered clouds.15 mph52%29.80 "HgN/A
12:50 PM63 °FScattered clouds.15 mph52%29.80 "HgN/A
12:20 PM63 °FScattered clouds.20 mph49%29.80 "HgN/A
11:50 AM63 °FScattered clouds.17 mph52%29.80 "HgN/A
11:20 AM63 °FScattered clouds.16 mph56%29.80 "HgN/A
10:50 AM59 °FScattered clouds.18 mph63%29.80 "HgN/A
10:20 AM61 °FScattered clouds.17 mph63%29.80 "HgN/A
9:50 AM59 °FPassing clouds.16 mph68%29.80 "HgN/A
9:20 AM57 °FPassing clouds.15 mph72%29.80 "HgN/A
8:50 AM57 °FPassing clouds.14 mph72%29.77 "HgN/A
8:20 AM55 °FPassing clouds.14 mph77%29.77 "HgN/A
7:50 AM54 °FPassing clouds.12 mph82%29.77 "HgN/A
7:20 AM54 °FPassing clouds.13 mph82%29.77 "HgN/A
6:50 AM54 °FPassing clouds.13 mph82%29.77 "HgN/A
6:20 AM54 °FPassing clouds.10 mph82%29.77 "HgN/A
5:50 AM54 °FPassing clouds.13 mph82%29.77 "HgN/A
4:50 AM54 °FPartly cloudy.13 mph82%29.80 "HgN/A
4:20 AM54 °FPartly cloudy.13 mph82%29.80 "HgN/A
3:50 AM54 °FPartly cloudy.14 mph82%29.80 "HgN/A
3:20 AM54 °FPassing clouds.15 mph82%29.80 "HgN/A
2:50 AM54 °FPassing clouds.15 mph82%29.80 "HgN/A
2:20 AM54 °FClear.14 mph82%29.80 "Hg10 mi
1:50 AM55 °FClear.15 mph77%29.80 "Hg10 mi
1:20 AM55 °FClear.13 mph72%29.80 "Hg10 mi
12:50 AM55 °FClear.14 mph67%29.80 "Hg10 mi
11:50 PM
Tue, Jul 28
55 °FClear.12 mph67%29.80 "Hg10 mi
11:20 PM55 °FClear.10 mph63%29.80 "Hg10 mi
10:50 PM57 °FClear.9 mph59%29.80 "Hg10 mi
10:20 PM57 °FSunny.10 mph59%29.80 "Hg10 mi
Weather by CustomWeather, © 2015

See weather overviewHow to use our weather pages